Location: Unnamed
(48.6007°N, 2.4808°E)
Time: 09:12:48
(UTC+02:00)

PCSat - Pass Details

Date: 26 March 2023
Orbit: 783 x 794 km, 67.1° (Epoch: 29 May)

Event Time Altitude Azimuth Distance (km) Brightness Sun altitude
Rises 00:18:00 0° 327° (NNW) 3,300 13.6 -38.7°
Reaches altitude 10° 00:20:54 10° 341° (NNW) 2,370 12.7 -38.8°
Enters shadow 00:23:51 21° 12° (NNE) 1,709 11.7 -38.9°
